Wind_Speed
30 27 23 19 17 14 11 9 8 12 14 13 12 12 12 14 17 16 19 17 18 15
27 25 22 20 16 11 7 9 14 13 14 14 13 13 14 12 13 15 15 16 18 18
26 24 21 16 11 8 10 10 11 13 14 14 13 13 12 14 16 17 18 21 14 16
27 25 21 17 14 13 8 12 13 14 15 16 14 13 11 14 18 22 20 17 16 15
27 25 23 19 16 10 9 11 12 15 16 15 14 13 13 16 20 16 17 18 18 21
28 26 25 20 17 11 11 10 14 16 16 12 11 13 16 19 23 18 19 18 16 18
30 27 23 20 16 14 11 9 13 16 17 14 11 15 20 22 20 19 20 21 22 25
29 23 19 17 17 17 8 8 11 18 16 18 17 18 21 22 22 20 19 21 22 21
26 21 24 25 24 15 10 2 11 16 18 20 24 23 21 22 23 21 20 21 20 21
28 29 31 28 23 17 12 16 14 21 23 21 24 25 24 22 21 19 19 23 21 21
30 32 29 22 13 7 17 12 20 26 25 24 22 22 22 21 21 25 22 21 21 20
34 29 21 13 9 14 11 20 24 21 23 24 23 19 19 19 22 23 21 20 18 20
15 7 4 13 19 11 17 21 22 24 25 27 24 17 18 21 20 21 20 18 18 20
9 9 18 17 6 16 19 21 23 25 23 19 16 15 17 19 19 19 18 16 18 20
Wind_Direction
215 211 207 219 232 245 261 278 296 308 307 307 302 299 302 304 307 303 310 316 311 308
209 211 221 229 240 257 269 298 309 298 301 307 305 297 295 297 300 300 297 305 304 299
217 219 225 232 252 255 291 294 305 311 312 313 308 302 297 299 305 305 300 304 292 300
229 227 233 241 241 259 276 311 310 322 323 315 304 290 295 299 300 305 300 295 298 296
233 234 232 238 240 245 281 296 315 325 317 315 300 284 292 290 306 296 292 290 291 300
230 230 232 241 244 242 274 287 307 310 318 310 290 278 281 296 301 289 282 284 295 303
233 228 233 243 238 251 253 293 300 315 310 306 292 280 283 288 299 296 286 288 292 301
232 229 232 225 231 222 246 293 309 297 302 296 288 287 283 279 291 290 288 290 291 299
223 216 211 213 205 210 203 231 287 296 296 289 293 286 280 280 285 284 283 285 286 297
212 211 211 204 211 208 234 293 300 290 289 286 292 279 277 285 277 271 291 288 292 298
209 200 197 210 218 272 300 295 281 287 284 289 284 281 272 274 276 280 291 282 292 296
197 201 214 222 280 308 284 274 286 286 285 285 284 280 278 276 281 275 287 282 291 304
185 178 338 333 310 281 275 285 288 289 289 288 287 278 280 281 276 288 277 284 294 306
201 281 292 283 269 279 285 293 295 290 287 277 280 281 281 281 278 282 276 283 298 302
Height
1543 1545 1548 1550 1550 1549 1548 1547 1545 1547 1544 1540 1540 1539 1539 1539 1537 1537 1535 1534 1532 1530
1542 1542 1545 1545 1545 1545 1545 1544 1542 1541 1542 1539 1539 1537 1535 1537 1536 1534 1534 1531 1529 1527
1537 1538 1539 1540 1541 1542 1540 1540 1540 1538 1537 1536 1535 1534 1531 1533 1532 1531 1529 1528 1526 1524
1530 1532 1533 1535 1535 1536 1538 1536 1536 1535 1534 1533 1531 1530 1528 1528 1527 1526 1525 1523 1523 1521
1522 1525 1527 1528 1529 1530 1530 1531 1531 1531 1530 1528 1528 1527 1526 1525 1523 1521 1520 1519 1518 1517
1517 1520 1521 1522 1523 1524 1525 1526 1526 1526 1525 1524 1523 1523 1522 1520 1519 1517 1516 1515 1514 1513
1512 1514 1516 1517 1518 1520 1521 1522 1522 1522 1521 1520 1520 1519 1519 1517 1516 1514 1512 1510 1508 1507
1508 1511 1512 1514 1515 1515 1515 1517 1518 1517 1517 1516 1516 1516 1515 1513 1511 1510 1509 1506 1503 1503
1505 1507 1508 1508 1507 1507 1508 1510 1513 1513 1512 1511 1511 1510 1510 1508 1507 1504 1503 1501 1499 1497
1500 1500 1501 1501 1500 1500 1503 1506 1508 1506 1505 1504 1504 1503 1503 1503 1502 1500 1498 1497 1494 1492
1496 1496 1495 1496 1497 1497 1502 1503 1501 1501 1501 1499 1497 1497 1497 1496 1495 1493 1491 1490 1488 1486
1486 1489 1493 1491 1494 1499 1499 1499 1497 1494 1494 1493 1492 1491 1491 1491 1490 1488 1487 1485 1483 1481
1492 1493 1494 1490 1495 1494 1494 1494 1491 1488 1487 1486 1485 1485 1486 1485 1484 1482 1482 1480 1478 1476
1488 1490 1491 1491 1490 1490 1489 1488 1485 1482 1481 1479 1479 1479 1480 1479 1478 1477 1475 1474 1472 1470